Regional Weather Roundup
Issued by NWS Cleveland, OH

Home | Current Version | Previous Version | Text Only | Print | Product List | Glossary On
Versions: 1 2 3 4 5 6 7 8 9 10 11 12 13 14 15 16 17 18 19 20 21 22 23 24 25 26 27 28 29 30 31 32 33 34 35 36 37 38 39 40 41 42 43 44 45 46 47 48 49 50
000
ASUS41 KCLE 311310
RWRCLE
OHIO REGIONAL WEATHER ROUNDUP
NATIONAL WEATHER SERVICE WILMINGTON, OH
900 AM EDT FRI JUL 31 2015

NOTE: "FAIR" INDICATES FEW OR NO CLOUDS BELOW 12,000 FEET WITH NO
SIGNIFICANT WEATHER AND/OR OBSTRUCTIONS TO VISIBILITY.

OHZ001>008-015>018-024>027-034-035-043-044-311400-
   NORTHWEST OHIO

CITY           SKY/WX    TMP DP  RH WIND       PRES   REMARKS
DEFIANCE       SUNNY     73  62  68 W6        30.01R
FINDLAY        SUNNY     72  63  73 W12       30.00S
TOLEDO EXPRESS SUNNY     71  61  70 W7        29.98S
TOLEDO EXEC    SUNNY     73  60  63 W7        29.98S
LIMA           SUNNY     72  64  76 W7        30.03R
$$

OHZ009>014-019>023-028>033-038-089-311400-
   NORTHEAST OHIO

CITY           SKY/WX    TMP DP  RH WIND       PRES   REMARKS
CLE-HOPKINS    SUNNY     73  58  59 W12       30.00R
CLE-LAKEFRONT  SUNNY     76  60  57 SW13      29.96R
CUY CO. ARPT   SUNNY     75  63  64 SW9       29.98R
LORAIN-ELYRIA  SUNNY     72  59  63 W8        29.99S
ASHTABULA      SUNNY     74  65  73 SW9       29.97S
AKRON-CANTON   SUNNY     72  57  59 W8        30.01S
WOOSTER        SUNNY     70  60  70 W6        30.02R
MANSFIELD      SUNNY     73  59  61 W8        30.02S
YOUNGSTOWN     SUNNY     72  59  63 SW6       29.99S
$$

OHZ042-051>053-060>062-070>072-077>081-311400-
  SOUTHWEST OHIO

CITY           SKY/WX    TMP DP  RH WIND       PRES   REMARKS
CINC-COVINGTON SUNNY     66  61  85 CALM      30.08R
CINC-LUNKEN    SUNNY     71  65  81 S3        30.07S
HAMILTON       SUNNY     71  64  78 CALM      30.07S
DAYTON         SUNNY     73  64  73 NW9       30.06S
WRIGHT-PAT AFB SUNNY     71  64  77 SW5       30.05R
DAYTON GENERAL SUNNY     73  61  65 W6        30.06S
WILMINGTON     SUNNY     73  63  70 SW7       30.06S
$$

OHZ036-037-039>041-045>050-054>059-063>069-073>076-082>088-311400-
  CENTRAL AND SOUTHEAST OHIO

CITY           SKY/WX    TMP DP  RH WIND       PRES   REMARKS
COLUMBUS       SUNNY     70  60  70 S3        30.03S
OSU AIRPORT    SUNNY     72  62  71 W9        30.03S
BOLTON FIELD   SUNNY     72  63  73 W3        30.04S
RICKENBACK AFB SUNNY     67  61  81 SW5       30.04S
NEWARK         SUNNY     70  62  76 S5        30.03S
MARION         SUNNY     71  61  70 W8        30.02S
LANCASTER      SUNNY     71  62  73 SW5       30.05R
ZANESVILLE     SUNNY     68  60  75 SW5       30.04R
NEW PHILLY     SUNNY     68  64  87 SE5       30.02F
$$


USA.gov is the U.S. government's official web portal to all federal, state and local government web resources and services.